sat.trackr.live / text

‹ back to catalog

QIANFAN-111

NORAD 68638 · 2026-075C

PAYLOAD ACTIVE UNKNOWN

§ Identity

Operator
Country
PRC
Launch date
2026-04-07
Launch site
WSC
Launch vehicle
Mass (kg)
RCS (m²)

External: N2YO · Heavens-Above · Gunter

§ Orbital elements

Epoch: 2026-05-24T18:05:51.498528Z

Period
104.87 min
Inclination
88.9881°
Eccentricity
0.0011046
Mean motion
13.73113721 rev/d
Perigee alt
980.3 km
Apogee alt
996.6 km
Semi-major
7,366.6 km
B*
4.1547e-5
RAAN
323.4131°
Arg perigee
77.0057°
Mean anomaly
283.2340°
Rev number
663

§ Raw data

QIANFAN-1111 68638U 26075C   26144.75406827  .00000051  00000+0  41547-4 0  99972 68638  88.9881 323.4131 0011046  77.0057 283.2340 13.73113721  6636

JSON: /api/v1/satellites/68638 · /tle

For live sub-satellite position, see the globe view (requires WebGL).

§ Visibility from observer

Set your observer location to see the next 7 days of passes ≥ 10°. The values pass through the URL so the page stays shareable.

No JS? Fill the form by hand. The geolocation button needs JavaScript.